Regional Weather Roundup
Issued by NWS Grand Forks, ND

Home | Current Version | Previous Version | Graphics & Text | Print | Product List | Glossary On
Versions: 1 2 3 4 5 6 7 8 9 10 11 12 13 14 15 16 17 18 19 20 21 22 23 24 25 26 27 28 29 30 31 32 33 34 35 36 37 38 39 40 41 42 43 44 45 46 47 48 49 50
000
ASUS43 KFGF 211731
RWRFGF
PRAIRIE TO PINES  WEATHER ROUNDUP
NATIONAL WEATHER SERVICE EASTERN NORTH DAKOTA/GRAND FORKS ND
1200 PM CDT SAT APR 21 2018

 **SATELLITE DATA USED TO AUGMENT SKY COVER AT AUTOMATED STATIONS**
 *****  WEATHER ACROSS EASTERN NORTH DAKOTA  *****

CITY           SKY/WX    TMP DP  RH WIND       PRES   REMARKS
GRAND FORKS    FAIR      50  44  80 S12       30.32F
GRAND FRKS AFB FAIR      51  44  76 S9        30.31F
GRAND FRKS NWS   N/A     52  45  77 S7        30.29F
DEVILS LAKE    FAIR      53  39  59 SW13      30.27F
FARGO          FAIR      54  41  61 S12       30.34F
WAHPETON ARPT  FAIR      52  37  58 SE9       30.36F
$$

 ***** WEATHER ACROSS CENTRAL AND WESTERN NORTH DAKOTA  *****

CITY           SKY/WX    TMP DP  RH WIND       PRES   REMARKS
BISMARCK       FAIR      59  35  40 SW21G30   30.23F
MINOT          FAIR      55  40  56 S20       30.16F
JAMESTOWN      FAIR      56  40  55 S15       30.29F
MINOT AFB      FAIR      53  41  62 S18G28    30.15S
GARRISON         N/A     52  41  66 S18       30.17F
WILLISTON      FAIR      59  39  47 S15G21    30.07F
DICKINSON      FAIR      54  39  57 S21       30.13F
HETTINGER      FAIR      54  36  50 S22G28    30.18F
$$

 *****  OTHER AIRPORT OBSERVATIONS IN OUR AREA  *****

CITY           SKY/WX    TMP DP  RH WIND       PRES   REMARKS
WALHALLA       FAIR      59  43  55 SW13G20   30.26F
GRAFTON AIRPOR FAIR      55  43  62 SE12      30.31F
VALLEY CITY AR FAIR      54  48  82 SW15      30.33F
CANDO          FAIR      57  41  54 S17       30.26F
CAVALIER APRT    N/A     57  45  62 S13       30.27F
GWINNER          N/A     55  43  62 S6        30.33F
SHEYENNE NWR     N/A     55  42  62 S7        29.95S
ROLLA          FAIR      52  46  82 S22       30.21F
 ***** THE ABOVE OBSERVATIONS ARE NON NWS ARE NOT QUALITY
       CONTROLLED AND MAY MIS-REPORT RAIN FOR SNOW...
$$

  *****  WEATHER ACROSS NORTHERN MINNESOTA  *****

CITY           SKY/WX    TMP DP  RH WIND       PRES   REMARKS
FLAG ISLAND    FAIR      43  32  65 SE10      30.32F
WARROAD        FAIR      55  41  58 S7        30.33F
ROSEAU         FAIR      55  41  58 S13       30.32F
HALLOCK        FAIR      55  46  71 S14       30.30F
THF RVR FALLS  FAIR      53  40  61 S12G18    30.35F
BAUDETTE       FAIR      55  29  36 S14G21    30.34F
WASKISH        CLOUDY    48  34  57 W6        30.35F
CROOKSTON      FAIR      50  43  76 S10       30.34F
STEPHEN NDAWN    N/A     50  45  81 S13         N/A
GREENBUSH NDAW   N/A     52  43  71 S12         N/A
$$
  *****  WEATHER ACROSS CENTRAL AND WEST MINNESOTA  *****

CITY           SKY/WX    TMP DP  RH WIND       PRES   REMARKS
FOSSTON        FAIR      54  36  50 S5        30.35F
BEMIDJI        FAIR      54  33  44 SE3       30.34F
PARK RAPIDS    FAIR      52  30  43 S7        30.36F
ELBOW LAKE     FAIR      54  37  51 SW12      30.37F
WADENA         FAIR      54  30  40 SE6       30.37S
DETROIT LAKES  FAIR      54  32  43 S8        30.36F
MOORHEAD       FAIR      54  39  58 S9        30.36S
FERGUS FALLS   FAIR      55  36  47 SW10      30.34F
MORRIS MN      FAIR      52  37  58 S10       30.37F
STAPLES        FAIR      52  28  40 W5        30.38F
$$
  *****  WEATHER ELSEWHERE ACROSS MINNESOTA  *****

CITY           SKY/WX    TMP DP  RH WIND       PRES   REMARKS
DULUTH         FAIR      53  21  28 SW3       30.38S
INTRNTL FALLS  FAIR      56  27  32 VRB5      30.34F
ELY            FAIR      55  19  24 CALM      30.35F
CLOQUET        FAIR      54  14  20 SW6       30.37F
WHEATON        FAIR      54  37  54 S9        30.38F
BRAINERD       FAIR      52  26  36 VRB5      30.39F
HIBBING        FAIR      53  23  31 VRB6      30.36F
ALEXANDRIA     FAIR      55  30  38 SW9       30.39F
SAINT CLOUD    FAIR      50  23  34 VRB3      30.40F
MINNEAPOLIS    FAIR      52  22  30 SE5       30.41F
$$

  *****  WEATHER ACROSS SOUTH DAKOTA  *****

CITY           SKY/WX    TMP DP  RH WIND       PRES   REMARKS
SIOUX FALLS    CLOUDY    45  33  63 E10       30.34F
BROOKINGS      CLOUDY    48  34  58 SE8       30.36S
WATERTOWN      FAIR      51  37  58 S8        30.34F
HURON          CLOUDY    43  33  68 S8        30.35S
SISSETON         N/A     54  40  59 SE10      30.34F
ABERDEEN       FAIR      55  38  52 S10       30.34F
MITCHELL       CLOUDY    44  35  70 E3        30.35S
PIERRE         CLOUDY    45  42  89 SE6       30.30S
MOBRIDGE       CLOUDY    54  39  57 S15       30.25F
RAPID CITY     CLOUDY    45  37  73 S14       30.21S
$$

  *****  SOME WEATHER IN NEARBY STATES *****

CITY           SKY/WX    TMP DP  RH WIND       PRES   REMARKS
GLASGOW MT     FAIR      61  40  45 SE15      29.99F
GREAT FALLS MT FAIR      60  29  30 SW26G36   29.99R
CHEYENNE WY    LGT SNOW  37  33  85 NW3       30.17F VSB 1
SCOTTSBLUFF NE CLOUDY    38  38 100 S5        30.23S
OMAHA NE       CLOUDY    52  28  39 E9        30.31R
DES MOINES IA  CLOUDY    54  27  35 E8        30.34S
DAVENPORT IA   FAIR      51  28  41 E12       30.43S
CHICAGO IL     CLOUDY    50  25  37 NE3       30.43F
EAU CLAIRE WI  FAIR      53  24  32 VRB3      30.41F
LA CROSSE WI   FAIR      54  32  43 S7        30.42F
$$

  *****  SOME NATIONAL WEATHER *****

CITY           SKY/WX    TMP DP  RH WIND       PRES   REMARKS
LA GUARDIA NY  FAIR      55  25  31 NW14      30.35F
RALEIGH NC     FAIR      63  33  32 NE5       30.41F
ATLANTA GA     PTSUNNY   67  36  31 E16G22    30.32F
NEW ORLEANS LA PTSUNNY   75  61  61 SE14      30.14F
OKLAHOMA CITY  RAIN      48  46  93 E12       30.02R FOG
ALBUQUERQUE NM PTSUNNY   48  29  47 E5        30.17R
SALT LAKE CITY FAIR      60  32  34 CALM      30.19F
LOS ANGELES CA FAIR      70  48  45 SE6       30.06F
BOISE ID       PTSUNNY   60  34  37 NW8       30.19R
SEATTLE WA     FAIR      51  37  58 SW15      30.37R
$$

*** WEATHER ACROSS MANITOBA...SASKATCHEWAN AND ONTARIO ***
                ***ONTARIO***

CITY           SKY/WX    TMP DP  RH WIND       PRES   REMARKS
GERALDTON      SUNNY     55  12  18 CALM      30.34F
THUNDER BAY    SUNNY     52  28  40 E10       30.37F
SIOUX LOOKOUT  MOSUNNY   54  28  37 CALM      30.33F
TORONTO        MOSUNNY   54  19  26 VRB2      30.42F
BIG TROUT LK   SUNNY     52  21  30 SE3       30.24F
PICKLE LAKE    MOSUNNY   57  19  23 VRB2      30.29F
DRYDEN         SUNNY     55  30  38 VRB3      30.33F
KENORA         MOSUNNY   50  30  46 SW14      30.32F
$$
                *** MANITOBA***

CITY           SKY/WX    TMP DP  RH WIND       PRES   REMARKS
BRANDON        MOSUNNY   54  41  62 SW24G33   30.17F
DAUPHIN        SUNNY     61  41  48 S9        30.11F
ISLAND LAKE    MOSUNNY   57  32  38 SW10G17   30.19F
PILOT MOUND      N/A     55  41  58 SW18        N/A
THE PAS        MOSUNNY   46  32  57 SE15      30.02S
THOMPSON       MOSUNNY   54  30  40 S10       30.05F
WINNIPEG       MOSUNNY   59  41  51 S20       30.25F
LYNN LAKE      SUNNY     48  32  53 SE7       29.99S
CHURCHILL      MOSUNNY   48  30  49 SW13      29.97F
GILLAM         MOSUNNY   55  30  38 SW14G21   30.07F
$$
                ***SASKATCHEWAN***

CITY           SKY/WX    TMP DP  RH WIND       PRES   REMARKS
ESTEVAN        MOSUNNY   54  39  58 S20       30.07F
KINDERSLEY     CLOUDY    52  37  58 S10       29.80F
LLOYDMINSTER   CLOUDY    46  39  76 E12G18    29.75F
PRINCE ALBERT  CLOUDY    41  34  75 E7        29.92F
REGINA         PTSUNNY   54  45  71 SE17      30.00S
YORKTON        SUNNY     43  36  75 SE12      30.05S
N. BATTLEFORD  SUNNY     45  39  81 SE15      29.83F
LA RONGE       CLOUDY    43  34  70 NE7       29.90F
SASKATOON      CLOUDY    57  36  44 S10       29.88F
SWIFT CURRENT  SUNNY     61  39  44 S20G28    29.87F
$$
NOTE: THESE ARE AUTOMATED STATIONS WITH LIMITED QUALITY CONTROL
      "FAIR" INDICATES FEW OR NO CLOUDS BELOW 12,000 FEET WITH NO
      SIGNIFICANT WEATHER AND/OR OBSTRUCTIONS TO VISIBILITY.
      SKY/WX - SKY CONDITION AND SIGNIFICANT WEATHER.
      TMP - AIR TEMPERATURE.    DP   - DEWPOINT TEMPERATURE.
      RH  - RELATIVE HUMIDITY.  PRES - PRESSURE.
      HX  - HEAT INDEX.         WCI  - WIND CHILL INDEX.
$




USA.gov is the U.S. government's official web portal to all federal, state and local government web resources and services.